This is the latest recevied weather packets stored in our database for station/object E22ZMG-3. If no packets are shown the sender has not sent any weather packets the latest 10 day(s).
| Time | Temp. | Humidity | Pressure | Rain* | Wind** | Luminosity | Snow |
|---|---|---|---|---|---|---|---|
| 1777977664 | 37.22° C | 37% | 973 hPa | - | - | 0 W/m² | - |
| 1777977039 | 37.22° C | 37% | 973 hPa | - | - | 0 W/m² | - |
| 1777976544 | 36.67° C | 39% | 973 hPa | - | - | 0 W/m² | - |
| 1777976480 | 36.67° C | 39% | 973 hPa | - | - | 0 W/m² | - |
| 1777976414 | 36.67° C | 39% | 973 hPa | - | - | 0 W/m² | - |
| 1777975789 | 37.22° C | 40% | 973 hPa | - | - | 0 W/m² | - |
| 1777975164 | 36.11° C | 41% | 973 hPa | - | - | 0 W/m² | - |
| 1777974540 | 38.33° C | 38% | 973 hPa | - | - | 0 W/m² | - |
| 1777973916 | 38.33° C | 38% | 973 hPa | - | - | 0 W/m² | - |
| 1777973291 | 37.78° C | 39% | 973 hPa | - | - | 0 W/m² | - |
| 1777972666 | 38.33° C | 38% | 973 hPa | - | - | 0 W/m² | - |
| 1777972042 | 38.89° C | 38% | 973 hPa | - | - | 0 W/m² | - |
| 1777971417 | 38.33° C | 38% | 973 hPa | - | - | 0 W/m² | - |
| 1777970793 | 37.78° C | 39% | 973 hPa | - | - | 0 W/m² | - |
| 1777970169 | 37.22° C | 41% | 973 hPa | - | - | 0 W/m² | - |
| 1777969544 | 37.78° C | 39% | 974 hPa | - | - | 0 W/m² | - |
| 1777968919 | 38.33° C | 38% | 974 hPa | - | - | 0 W/m² | - |
| 1777968295 | 38.89° C | 37% | 974 hPa | - | - | 0 W/m² | - |
| 1777967670 | 37.22° C | 41% | 974 hPa | - | - | 0 W/m² | - |
| 1777967042 | 37.22° C | 40% | 975 hPa | - | - | 0 W/m² | - |
| 1777966418 | 37.22° C | 40% | 975 hPa | - | - | 0 W/m² | - |
| 1777965793 | 37.22° C | 39% | 975 hPa | - | - | 0 W/m² | - |
| 1777965168 | 37.78° C | 38% | 975 hPa | - | - | 0 W/m² | - |
| 1777964543 | 38.33° C | 38% | 975 hPa | - | - | 0 W/m² | - |
| 1777963917 | 38.89° C | 38% | 976 hPa | - | - | 0 W/m² | - |
* Rain since midnight (hover to see other rain measurements)
** Current wind speed in m/s (hover to see current wind gust speed)